Time,TemperatureF,DewpointF,PressureIn,WindDirection,WindDirectionDegrees,WindSpeedMPH,WindSpeedGustMPH,Humidity,HourlyPrecipIn,Conditions,Clouds,dailyrainin,SoftwareType,DateUTC
2017-12-13 00:02:00,22.3,10.1,29.81,NE,45,11.5,11.5,59,0.00,CLR,,0.00,WeatherDisplay:10.37,2017-12-13 05:02:00,
2017-12-13 00:07:00,22.3,9.4,29.81,South,172,8.1,8.1,57,0.00,CLR,,0.00,WeatherDisplay:10.37,2017-12-13 05:07:00,
2017-12-13 00:12:00,22.3,9.7,29.81,East,101,5.0,5.6,58,0.00,CLR,,0.00,WeatherDisplay:10.37,2017-12-13 05:12:00,
2017-12-13 00:17:00,22.4,9.8,29.81,SE,124,8.1,8.1,58,0.00,CLR,,0.00,WeatherDisplay:10.37,2017-12-13 05:17:00,
2017-12-13 00:22:00,22.4,9.4,29.81,North,358,3.5,5.5,57,0.00,CLR,,0.00,WeatherDisplay:10.37,2017-12-13 05:22:00,
2017-12-13 00:27:00,22.4,10.2,29.81,NW,309,13.8,13.8,59,0.00,CLR,,0.00,WeatherDisplay:10.37,2017-12-13 05:27:00,
2017-12-13 00:32:00,22.3,10.5,29.80,East,84,9.2,9.2,60,0.00,CLR,,0.00,WeatherDisplay:10.37,2017-12-13 05:32:00,
2017-12-13 00:37:00,22.3,10.5,29.80,North,1,3.5,3.5,60,0.00,CLR,,0.00,WeatherDisplay:10.37,2017-12-13 05:37:00,
2017-12-13 00:42:00,22.3,10.1,29.80,NNE,27,18.4,18.4,59,0.00,CLR,,0.00,WeatherDisplay:10.37,2017-12-13 05:42:00,
2017-12-13 00:47:00,22.2,11.5,29.80,WNW,298,4.6,4.6,63,0.00,CLR,,0.00,WeatherDisplay:10.37,2017-12-13 05:47:00,
2017-12-13 00:52:00,22.1,11.4,29.80,North,1,5.8,5.8,63,0.00,CLR,,0.00,WeatherDisplay:10.37,2017-12-13 05:52:00,
2017-12-13 00:57:00,21.9,10.9,29.80,ENE,58,10.4,10.4,62,0.00,CLR,,0.00,WeatherDisplay:10.37,2017-12-13 05:57:00,
2017-12-13 01:02:00,21.8,10.4,29.81,WNW,303,10.0,10.0,61,0.00,CLR,,0.00,WeatherDisplay:10.37,2017-12-13 06:02:00,
2017-12-13 01:07:00,21.8,11.5,29.80,NE,40,6.0,6.0,64,0.00,CLR,,0.00,WeatherDisplay:10.37,2017-12-13 06:07:00,
2017-12-13 01:12:00,21.8,10.8,29.80,ENE,75,9.2,9.2,62,0.00,CLR,,0.00,WeatherDisplay:10.37,2017-12-13 06:12:00,
2017-12-13 01:17:00,21.7,11.0,29.81,East,82,3.5,3.5,63,0.00,CLR,,0.00,WeatherDisplay:10.37,2017-12-13 06:17:00,
2017-12-13 01:22:00,21.6,10.9,29.81,SE,127,6.0,6.0,63,0.00,CLR,,0.00,WeatherDisplay:10.37,2017-12-13 06:22:00,
2017-12-13 01:27:00,21.6,10.9,29.82,NW,325,5.8,5.8,63,0.00,CLR,,0.00,WeatherDisplay:10.37,2017-12-13 06:27:00,
2017-12-13 01:32:00,21.5,11.2,29.82,NNE,25,3.5,3.5,64,0.00,CLR,,0.00,WeatherDisplay:10.37,2017-12-13 06:32:00,
2017-12-13 01:37:00,21.5,11.2,29.82,NE,56,4.6,4.6,64,0.00,CLR,,0.00,WeatherDisplay:10.37,2017-12-13 06:37:00,
2017-12-13 01:42:00,21.5,11.5,29.81,North,11,12.7,12.7,65,0.00,CLR,,0.00,WeatherDisplay:10.37,2017-12-13 06:42:00,
2017-12-13 01:47:00,21.5,10.8,29.82,NNE,18,3.5,3.5,63,0.00,CLR,,0.00,WeatherDisplay:10.37,2017-12-13 06:47:00,
2017-12-13 01:52:00,21.5,11.2,29.81,NNE,31,6.0,6.0,64,0.00,CLR,,0.00,WeatherDisplay:10.37,2017-12-13 06:52:00,
2017-12-13 01:57:00,21.4,11.1,29.82,NE,46,3.5,3.5,64,0.00,CLR,,0.00,WeatherDisplay:10.37,2017-12-13 06:57:00,
2017-12-13 02:02:00,21.4,11.5,29.82,NW,314,4.6,4.6,65,0.00,CLR,,0.00,WeatherDisplay:10.37,2017-12-13 07:02:00,
2017-12-13 02:07:00,21.3,11.4,29.82,East,81,4.6,4.6,65,0.00,CLR,,0.00,WeatherDisplay:10.37,2017-12-13 07:07:00,
2017-12-13 02:12:00,21.3,11.7,29.82,ENE,61,4.0,4.0,66,0.00,CLR,,0.00,WeatherDisplay:10.37,2017-12-13 07:12:00,
2017-12-13 02:17:00,21.3,11.4,29.82,ESE,104,11.5,11.5,65,0.00,CLR,,0.00,WeatherDisplay:10.37,2017-12-13 07:17:00,
2017-12-13 02:22:00,21.2,11.3,29.82,ESE,121,2.3,2.3,65,0.00,CLR,,0.00,WeatherDisplay:10.37,2017-12-13 07:22:00,
2017-12-13 02:27:00,21.3,11.4,29.82,East,86,9.2,9.2,65,0.00,CLR,,0.00,WeatherDisplay:10.37,2017-12-13 07:27:00,
2017-12-13 02:32:00,21.3,11.7,29.83,ESE,117,5.0,5.0,66,0.00,CLR,,0.00,WeatherDisplay:10.37,2017-12-13 07:32:00,
2017-12-13 02:37:00,21.2,11.6,29.82,East,84,3.5,3.5,66,0.00,CLR,,0.00,WeatherDisplay:10.37,2017-12-13 07:37:00,
2017-12-13 02:42:00,21.2,11.9,29.83,NE,48,3.5,3.5,67,0.00,CLR,,0.00,WeatherDisplay:10.37,2017-12-13 07:42:00,
2017-12-13 02:47:00,21.2,11.9,29.83,North,354,3.5,3.5,67,0.00,CLR,,0.00,WeatherDisplay:10.37,2017-12-13 07:47:00,
2017-12-13 02:52:00,21.1,11.8,29.83,NNE,27,3.5,3.5,67,0.00,CLR,,0.00,WeatherDisplay:10.37,2017-12-13 07:52:00,
2017-12-13 02:57:00,21.1,11.5,29.83,NNW,342,3.5,3.5,66,0.00,CLR,,0.00,WeatherDisplay:10.37,2017-12-13 07:57:00,
2017-12-13 03:02:00,21.2,11.3,29.83,SSE,166,5.8,5.8,65,0.00,CLR,,0.00,WeatherDisplay:10.37,2017-12-13 08:02:00,
2017-12-13 03:07:00,21.3,12.0,29.83,East,101,3.5,3.5,67,0.00,CLR,,0.00,WeatherDisplay:10.37,2017-12-13 08:07:00,
2017-12-13 03:12:00,21.2,12.3,29.82,East,91,8.1,8.1,68,0.00,CLR,,0.00,WeatherDisplay:10.37,2017-12-13 08:12:00,
2017-12-13 03:17:00,21.2,11.9,29.82,East,98,15.0,15.0,67,0.00,CLR,,0.00,WeatherDisplay:10.37,2017-12-13 08:17:00,
2017-12-13 03:22:00,21.3,11.4,29.83,ESE,103,13.8,13.8,65,0.00,CLR,,0.00,WeatherDisplay:10.37,2017-12-13 08:22:00,
2017-12-13 03:27:00,21.3,12.0,29.83,East,91,11.0,11.0,67,0.00,CLR,,0.00,WeatherDisplay:10.37,2017-12-13 08:27:00,
2017-12-13 03:32:00,21.3,11.4,29.83,WNW,284,3.5,3.5,65,0.00,CLR,,0.00,WeatherDisplay:10.37,2017-12-13 08:32:00,
2017-12-13 03:37:00,21.3,10.3,29.83,ESE,106,3.5,3.5,62,0.00,CLR,,0.00,WeatherDisplay:10.37,2017-12-13 08:37:00,
2017-12-13 03:42:00,21.4,10.0,29.83,East,96,3.5,3.5,61,0.00,CLR,,0.00,WeatherDisplay:10.37,2017-12-13 08:42:00,
2017-12-13 03:47:00,21.5,10.1,29.83,East,96,8.1,8.1,61,0.00,CLR,,0.00,WeatherDisplay:10.37,2017-12-13 08:47:00,
2017-12-13 03:52:00,21.5,9.7,29.83,ESE,117,6.9,6.9,60,0.00,CLR,,0.00,WeatherDisplay:10.37,2017-12-13 08:52:00,
2017-12-13 03:57:00,21.5,9.7,29.83,East,101,6.9,6.9,60,0.00,CLR,,0.00,WeatherDisplay:10.37,2017-12-13 08:57:00,
2017-12-13 04:02:00,21.5,9.7,29.84,West,270,0.0,0.2,60,0.00,CLR,,0.00,WeatherDisplay:10.37,2017-12-13 09:02:00,
2017-12-13 04:07:00,21.5,9.7,29.84,SSE,151,7.0,7.0,60,0.00,CLR,,0.00,WeatherDisplay:10.37,2017-12-13 09:07:00,
2017-12-13 04:12:00,21.5,9.4,29.85,ENE,58,3.5,3.5,59,0.00,CLR,,0.00,WeatherDisplay:10.37,2017-12-13 09:12:00,
2017-12-13 04:17:00,21.5,9.4,29.84,ENE,67,10.0,10.0,59,0.00,CLR,,0.00,WeatherDisplay:10.37,2017-12-13 09:17:00,
2017-12-13 04:22:00,21.5,9.4,29.84,East,92,5.8,5.8,59,0.00,CLR,,0.00,WeatherDisplay:10.37,2017-12-13 09:22:00,
2017-12-13 04:27:00,21.4,9.3,29.85,ENE,70,6.0,6.0,59,0.00,CLR,,0.00,WeatherDisplay:10.37,2017-12-13 09:27:00,
2017-12-13 04:32:00,21.3,9.2,29.85,SSW,211,4.6,4.6,59,0.00,CLR,,0.00,WeatherDisplay:10.37,2017-12-13 09:32:00,
2017-12-13 04:37:00,21.3,8.4,29.85,NE,54,8.1,8.1,57,0.00,CLR,,0.00,WeatherDisplay:10.37,2017-12-13 09:37:00,
2017-12-13 04:42:00,21.3,8.8,29.85,SSE,149,3.5,3.5,58,0.00,CLR,,0.00,WeatherDisplay:10.37,2017-12-13 09:42:00,
2017-12-13 04:47:00,21.1,8.6,29.85,SE,139,3.5,3.5,58,0.00,CLR,,0.00,WeatherDisplay:10.37,2017-12-13 09:47:00,
2017-12-13 04:57:00,21.0,8.1,29.85,East,87,4.6,4.6,57,0.00,CLR,,0.00,WeatherDisplay:10.37,2017-12-13 09:57:00,
2017-12-13 05:02:00,20.8,8.3,29.86,ESE,104,3.5,3.5,58,0.00,CLR,,0.00,WeatherDisplay:10.37,2017-12-13 10:02:00,
2017-12-13 05:07:00,20.8,8.3,29.85,East,84,6.9,6.9,58,0.00,CLR,,0.00,WeatherDisplay:10.37,2017-12-13 10:07:00,
2017-12-13 05:12:00,20.8,7.9,29.86,East,91,10.4,10.4,57,0.00,CLR,,0.00,WeatherDisplay:10.37,2017-12-13 10:12:00,
2017-12-13 05:17:00,20.9,7.6,29.87,South,174,8.1,8.1,56,0.00,CLR,,0.00,WeatherDisplay:10.37,2017-12-13 10:17:00,
2017-12-13 05:22:00,20.8,7.6,29.87,SW,236,13.8,13.8,56,0.00,CLR,,0.00,WeatherDisplay:10.37,2017-12-13 10:22:00,
2017-12-13 05:27:00,20.7,7.9,29.87,ESE,117,3.5,3.5,57,0.00,CLR,,0.00,WeatherDisplay:10.37,2017-12-13 10:27:00,
2017-12-13 05:32:00,20.6,7.8,29.87,South,186,2.3,0.0,57,0.00,CLR,,0.00,WeatherDisplay:10.37,2017-12-13 10:32:00,
2017-12-13 05:37:00,20.4,7.6,29.87,ESE,115,2.3,2.3,57,0.00,CLR,,0.00,WeatherDisplay:10.37,2017-12-13 10:37:00,
2017-12-13 05:42:00,20.3,7.9,29.88,SE,129,2.3,2.3,58,0.00,CLR,,0.00,WeatherDisplay:10.37,2017-12-13 10:42:00,
2017-12-13 05:47:00,20.4,7.6,29.88,ESE,110,8.1,8.1,57,0.00,CLR,,0.00,WeatherDisplay:10.37,2017-12-13 10:47:00,
2017-12-13 05:52:00,20.4,7.6,29.88,East,90,1.2,1.2,57,0.00,CLR,,0.00,WeatherDisplay:10.37,2017-12-13 10:52:00,
2017-12-13 05:57:00,20.2,7.8,29.88,East,91,1.2,1.2,58,0.00,CLR,,0.00,WeatherDisplay:10.37,2017-12-13 10:57:00,
2017-12-13 05:58:00,20.1,7.7,29.88,ENE,75,2.3,2.3,58,0.00,CLR,,0.00,WeatherDisplay:10.37,2017-12-13 10:58:00,
2017-12-13 06:00:00,31.5,8.2,29.87,SE,133,3.0,11.0,37,0.00,CLR,,0.00,WeatherDisplay:10.37,2017-12-13 11:00:00,
2017-12-13 06:03:00,20.1,7.7,29.88,South,174,2.3,2.3,58,0.00,CLR,,0.00,WeatherDisplay:10.37,2017-12-13 11:03:00,
2017-12-13 06:08:00,20.0,7.6,29.89,WSW,250,2.3,2.3,58,0.00,CLR,,0.00,WeatherDisplay:10.37,2017-12-13 11:08:00,
2017-12-13 06:13:00,20.0,6.8,29.90,North,2,3.5,3.5,56,0.00,CLR,,0.00,WeatherDisplay:10.37,2017-12-13 11:13:00,
2017-12-13 06:18:00,20.2,7.0,29.90,East,101,1.2,1.2,56,0.00,CLR,,0.00,WeatherDisplay:10.37,2017-12-13 11:18:00,
2017-12-13 06:23:00,20.0,6.8,29.90,SSW,203,3.5,3.5,56,0.00,CLR,,0.00,WeatherDisplay:10.37,2017-12-13 11:23:00,
2017-12-13 06:28:00,19.9,6.7,29.90,ESE,105,4.0,4.0,56,0.00,CLR,,0.00,WeatherDisplay:10.37,2017-12-13 11:28:00,
2017-12-13 06:33:00,19.9,6.3,29.90,SE,131,3.5,3.5,55,0.00,CLR,,0.00,WeatherDisplay:10.37,2017-12-13 11:33:00,
2017-12-13 06:34:00,19.9,6.3,29.90,SSW,203,3.5,3.5,55,0.00,CLR,,0.00,WeatherDisplay:10.37,2017-12-13 11:34:00,
2017-12-13 06:39:00,19.8,5.8,29.90,ESE,108,5.8,5.8,54,0.00,CLR,,0.00,WeatherDisplay:10.37,2017-12-13 11:39:00,
2017-12-13 06:40:00,32.3,10.1,29.86,ESE,112,3.0,16.0,39,0.00,CLR,,0.00,WeatherDisplay:10.37,2017-12-13 11:40:00,
2017-12-13 06:44:00,19.8,5.4,29.90,East,96,5.8,5.8,53,0.00,CLR,,0.00,WeatherDisplay:10.37,2017-12-13 11:44:00,
2017-12-13 06:49:00,19.8,5.4,29.91,NNE,29,2.3,2.3,53,0.00,CLR,,0.00,WeatherDisplay:10.37,2017-12-13 11:49:00,
2017-12-13 06:50:00,32.3,10.1,29.86,ESE,112,3.0,16.0,39,0.00,CLR,,0.00,WeatherDisplay:10.37,2017-12-13 11:50:00,
2017-12-13 06:54:00,19.9,5.1,29.90,East,91,8.1,8.1,52,0.00,CLR,,0.00,WeatherDisplay:10.37,2017-12-13 11:54:00,
2017-12-13 06:59:00,19.8,5.4,29.90,ESE,114,3.5,3.5,53,0.00,CLR,,0.00,WeatherDisplay:10.37,2017-12-13 11:59:00,
2017-12-13 07:00:00,32.3,10.1,29.86,ESE,112,3.0,16.0,39,0.00,CLR,,0.00,WeatherDisplay:10.37,2017-12-13 12:00:00,
2017-12-13 07:04:00,19.6,5.2,29.90,East,94,2.3,2.3,53,0.00,CLR,,0.00,WeatherDisplay:10.37,2017-12-13 12:04:00,
2017-12-13 07:05:00,19.6,4.8,29.90,NW,316,10.4,10.4,52,0.00,CLR,,0.00,WeatherDisplay:10.37,2017-12-13 12:05:00,
2017-12-13 07:10:00,19.5,4.7,29.90,ESE,110,1.2,0.0,52,0.00,CLR,,0.00,WeatherDisplay:10.37,2017-12-13 12:10:00,
2017-12-13 07:15:00,19.4,5.0,29.90,SE,139,4.6,4.6,53,0.00,CLR,,0.00,WeatherDisplay:10.37,2017-12-13 12:15:00,
2017-12-13 07:20:00,19.5,4.7,29.91,East,93,2.0,2.0,52,0.00,CLR,,0.00,WeatherDisplay:10.37,2017-12-13 12:20:00,
2017-12-13 07:25:00,19.4,4.2,29.91,East,89,6.9,6.9,51,0.00,CLR,,0.00,WeatherDisplay:10.37,2017-12-13 12:25:00,
2017-12-13 07:30:00,19.5,3.9,29.91,East,96,10.4,10.4,50,0.00,CLR,,0.00,WeatherDisplay:10.37,2017-12-13 12:30:00,
2017-12-13 07:35:00,19.6,3.5,29.91,SE,125,5.8,5.8,49,0.00,CLR,,0.00,WeatherDisplay:10.37,2017-12-13 12:35:00,
2017-12-13 07:40:00,19.7,4.0,29.91,East,101,5.8,5.8,50,0.00,CLR,,0.00,WeatherDisplay:10.37,2017-12-13 12:40:00,
2017-12-13 07:45:00,19.6,3.5,29.91,ESE,115,1.2,1.2,49,0.00,CLR,,0.00,WeatherDisplay:10.37,2017-12-13 12:45:00,
2017-12-13 07:50:00,19.5,4.3,29.91,East,91,1.2,1.2,51,0.00,CLR,,0.00,WeatherDisplay:10.37,2017-12-13 12:50:00,
2017-12-13 07:55:00,19.5,4.3,29.92,ESE,108,1.2,0.0,51,0.00,CLR,,0.00,WeatherDisplay:10.37,2017-12-13 12:55:00,
2017-12-13 08:00:00,19.5,4.3,29.91,East,95,3.5,3.5,51,0.00,CLR,,0.00,WeatherDisplay:10.37,2017-12-13 13:00:00,
2017-12-13 08:05:00,20.0,3.9,29.91,East,99,8.1,8.1,49,0.00,CLR,,0.00,WeatherDisplay:10.37,2017-12-13 13:05:00,
2017-12-13 08:10:00,20.6,4.9,29.92,ESE,105,1.2,0.0,50,0.00,CLR,,0.00,WeatherDisplay:10.37,2017-12-13 13:10:00,
2017-12-13 08:15:00,21.2,5.0,29.92,SE,124,2.3,2.3,49,0.00,CLR,,0.00,WeatherDisplay:10.37,2017-12-13 13:15:00,
2017-12-13 08:20:00,21.3,4.6,29.92,SE,141,8.1,8.1,48,0.00,CLR,,0.00,WeatherDisplay:10.37,2017-12-13 13:20:00,
2017-12-13 08:25:00,21.6,4.9,29.93,ENE,78,3.0,3.0,48,0.00,CLR,,0.00,WeatherDisplay:10.37,2017-12-13 13:25:00,
2017-12-13 08:30:00,21.7,4.5,29.93,East,80,4.0,4.0,47,0.00,CLR,,0.00,WeatherDisplay:10.37,2017-12-13 13:30:00,
2017-12-13 08:35:00,21.8,4.2,29.92,East,87,2.0,2.0,46,0.00,CLR,,0.00,WeatherDisplay:10.37,2017-12-13 13:35:00,
2017-12-13 08:40:00,22.0,5.3,29.92,East,79,5.0,5.0,48,0.00,CLR,,0.00,WeatherDisplay:10.37,2017-12-13 13:40:00,
2017-12-13 08:45:00,22.2,5.0,29.92,East,93,8.1,8.5,47,0.00,CLR,,0.00,WeatherDisplay:10.37,2017-12-13 13:45:00,
2017-12-13 08:50:00,22.5,4.3,29.91,ESE,109,9.2,9.2,45,0.00,CLR,,0.00,WeatherDisplay:10.37,2017-12-13 13:50:00,
2017-12-13 08:55:00,22.7,5.5,29.91,East,81,5.0,5.0,47,0.00,CLR,,0.00,WeatherDisplay:10.37,2017-12-13 13:55:00,
2017-12-13 09:00:00,22.8,4.6,29.92,ESE,108,2.0,2.0,45,0.00,CLR,,0.00,WeatherDisplay:10.37,2017-12-13 14:00:00,
2017-12-13 09:05:00,23.5,5.7,29.91,East,98,3.5,3.5,46,0.00,CLR,,0.00,WeatherDisplay:10.37,2017-12-13 14:05:00,
2017-12-13 09:10:00,23.8,5.5,29.91,SE,131,3.5,3.5,45,0.00,CLR,,0.00,WeatherDisplay:10.37,2017-12-13 14:10:00,
2017-12-13 09:15:00,24.3,6.0,29.91,ENE,75,1.2,1.2,45,0.00,CLR,,0.00,WeatherDisplay:10.37,2017-12-13 14:15:00,
2017-12-13 09:20:00,25.0,6.1,29.92,SE,139,1.2,1.7,44,0.00,CLR,,0.00,WeatherDisplay:10.37,2017-12-13 14:20:00,
2017-12-13 09:25:00,25.4,7.5,29.92,East,79,1.2,1.2,46,0.00,CLR,,0.00,WeatherDisplay:10.37,2017-12-13 14:25:00,
2017-12-13 09:30:00,25.4,4.9,29.91,SE,140,13.8,13.8,41,0.00,CLR,,0.00,WeatherDisplay:10.37,2017-12-13 14:30:00,
2017-12-13 09:35:00,25.5,5.6,29.92,ESE,103,3.5,3.5,42,0.00,CLR,,0.00,WeatherDisplay:10.37,2017-12-13 14:35:00,
2017-12-13 09:40:00,25.3,4.3,29.91,ENE,75,4.0,4.5,40,0.00,CLR,,0.00,WeatherDisplay:10.37,2017-12-13 14:40:00,
2017-12-13 09:45:00,25.3,4.8,29.91,East,100,6.0,6.0,41,0.00,CLR,,0.00,WeatherDisplay:10.37,2017-12-13 14:45:00,
2017-12-13 09:50:00,26.1,6.6,29.92,West,271,2.3,2.3,43,0.00,CLR,,0.00,WeatherDisplay:10.37,2017-12-13 14:50:00,
2017-12-13 09:55:00,26.6,5.5,29.92,ESE,111,3.5,3.5,40,0.00,CLR,,0.00,WeatherDisplay:10.37,2017-12-13 14:55:00,
2017-12-13 10:00:00,26.5,4.3,29.92,NE,39,0.0,0.2,38,0.00,CLR,,0.00,WeatherDisplay:10.37,2017-12-13 15:00:00,
2017-12-13 10:05:00,26.5,3.1,29.92,SE,138,5.8,5.8,36,0.00,CLR,,0.00,WeatherDisplay:10.37,2017-12-13 15:05:00,
2017-12-13 10:10:00,27.1,5.4,29.92,SSW,194,8.1,8.1,39,0.00,CLR,,0.00,WeatherDisplay:10.37,2017-12-13 15:10:00,
2017-12-13 10:15:00,27.9,6.1,29.91,ESE,113,3.5,3.5,39,0.00,CLR,,0.00,WeatherDisplay:10.37,2017-12-13 15:15:00,
2017-12-13 10:20:00,27.9,4.4,29.91,East,98,4.0,4.0,36,0.00,CLR,,0.00,WeatherDisplay:10.37,2017-12-13 15:20:00,
2017-12-13 10:30:00,28.3,3.5,29.90,ESE,119,6.9,6.9,34,0.00,CLR,,0.00,WeatherDisplay:10.37,2017-12-13 15:30:00,
2017-12-13 10:35:00,28.4,4.8,29.91,West,278,3.5,3.5,36,0.00,CLR,,0.00,WeatherDisplay:10.37,2017-12-13 15:35:00,
2017-12-13 10:40:00,28.4,5.4,29.91,SSE,152,4.6,4.6,37,0.00,CLR,,0.00,WeatherDisplay:10.37,2017-12-13 15:40:00,
2017-12-13 10:46:00,29.2,6.7,29.90,ESE,108,4.6,4.6,38,0.00,CLR,,0.00,WeatherDisplay:10.37,2017-12-13 15:46:00,
2017-12-13 10:51:00,29.8,6.7,29.90,SSE,160,4.6,4.6,37,0.00,CLR,,0.00,WeatherDisplay:10.37,2017-12-13 15:51:00,
2017-12-13 10:56:00,29.8,7.2,29.91,SW,230,3.5,3.5,38,0.00,CLR,,0.00,WeatherDisplay:10.37,2017-12-13 15:56:00,
2017-12-13 11:01:00,29.6,5.3,29.90,SE,127,3.5,3.5,35,0.00,CLR,,0.00,WeatherDisplay:10.37,2017-12-13 16:01:00,
2017-12-13 11:06:00,29.8,7.2,29.90,ENE,77,6.9,6.9,38,0.00,CLR,,0.00,WeatherDisplay:10.37,2017-12-13 16:06:00,
2017-12-13 11:11:00,30.2,5.2,29.89,South,179,8.0,8.0,34,0.00,CLR,,0.00,WeatherDisplay:10.37,2017-12-13 16:11:00,
2017-12-13 11:16:00,30.2,6.4,29.89,SE,131,9.2,9.2,36,0.00,CLR,,0.00,WeatherDisplay:10.37,2017-12-13 16:16:00,
2017-12-13 11:21:00,29.9,4.9,29.89,SSW,212,17.3,17.3,34,0.00,CLR,,0.00,WeatherDisplay:10.37,2017-12-13 16:21:00,
2017-12-13 11:26:00,30.1,7.5,29.89,SE,133,6.9,6.9,38,0.00,CLR,,0.00,WeatherDisplay:10.37,2017-12-13 16:26:00,
2017-12-13 11:31:00,30.5,6.7,29.89,ESE,117,6.9,6.9,36,0.00,CLR,,0.00,WeatherDisplay:10.37,2017-12-13 16:31:00,
2017-12-13 11:36:00,30.2,6.4,29.88,SE,124,3.5,3.5,36,0.00,CLR,,0.00,WeatherDisplay:10.37,2017-12-13 16:36:00,
2017-12-13 11:41:00,30.8,8.1,29.88,ESE,103,8.1,8.1,38,0.00,CLR,,0.00,WeatherDisplay:10.37,2017-12-13 16:41:00,
2017-12-13 11:46:00,30.7,8.6,29.88,SE,143,5.8,5.8,39,0.00,CLR,,0.00,WeatherDisplay:10.37,2017-12-13 16:46:00,
2017-12-13 11:51:00,31.2,8.5,29.88,ESE,113,4.6,4.6,38,0.00,CLR,,0.00,WeatherDisplay:10.37,2017-12-13 16:51:00,
2017-12-13 11:56:00,31.6,8.9,29.88,ESE,115,3.5,3.5,38,0.00,CLR,,0.00,WeatherDisplay:10.37,2017-12-13 16:56:00,
2017-12-13 12:04:00,31.3,8.0,29.87,SE,136,8.1,0.0,37,0.00,CLR,,0.00,WeatherDisplay:10.37,2017-12-13 17:04:00,
2017-12-13 13:11:00,35.3,13.9,29.85,WSW,255,11.5,12.0,41,0.00,CLR,,0.00,WeatherDisplay:10.37,2017-12-13 18:11:00,
2017-12-13 13:12:00,35.3,13.9,29.85,SSW,210,11.5,12.0,41,0.00,CLR,,0.00,WeatherDisplay:10.37,2017-12-13 18:12:00,
2017-12-13 13:25:00,35.3,12.8,29.84,SW,215,11.5,11.5,39,0.00,CLR,,0.00,WeatherDisplay:10.37,2017-12-13 18:25:00,
2017-12-13 13:30:00,35.3,12.8,29.83,SSW,208,4.6,4.6,39,0.00,CLR,,0.00,WeatherDisplay:10.37,2017-12-13 18:30:00,
2017-12-13 13:35:00,35.1,12.0,29.82,ESE,108,3.5,3.5,38,0.00,CLR,,0.00,WeatherDisplay:10.37,2017-12-13 18:35:00,
2017-12-13 13:40:00,35.3,13.9,29.82,NNW,331,2.3,2.3,41,0.00,CLR,,0.00,WeatherDisplay:10.37,2017-12-13 18:40:00,
2017-12-13 13:50:00,35.9,13.3,29.82,SW,224,9.2,9.2,39,0.00,CLR,,0.00,WeatherDisplay:10.37,2017-12-13 18:50:00,
2017-12-13 13:55:00,35.8,13.2,29.82,SSE,163,9.2,9.2,39,0.00,CLR,,0.00,WeatherDisplay:10.37,2017-12-13 18:55:00,
2017-12-13 14:00:00,35.5,13.0,29.82,South,179,10.4,10.4,39,0.00,CLR,,0.00,WeatherDisplay:10.37,2017-12-13 19:00:00,
2017-12-13 14:05:00,35.8,13.8,29.82,SE,124,2.3,2.3,40,0.00,CLR,,0.00,WeatherDisplay:10.37,2017-12-13 19:05:00,
2017-12-13 14:10:00,36.2,13.6,29.81,South,188,10.4,10.4,39,0.00,CLR,,0.00,WeatherDisplay:10.37,2017-12-13 19:10:00,
2017-12-13 14:15:00,36.1,13.5,29.81,East,83,6.9,6.9,39,0.00,CLR,,0.00,WeatherDisplay:10.37,2017-12-13 19:15:00,
2017-12-13 14:20:00,35.9,14.5,29.80,WSW,251,3.5,3.5,41,0.00,CLR,,0.00,WeatherDisplay:10.37,2017-12-13 19:20:00,
2017-12-13 14:25:00,35.9,14.5,29.80,South,174,9.2,9.2,41,0.00,CLR,,0.00,WeatherDisplay:10.37,2017-12-13 19:25:00,
2017-12-13 14:30:00,35.9,15.0,29.80,East,101,6.9,6.9,42,0.00,CLR,,0.00,WeatherDisplay:10.37,2017-12-13 19:30:00,
2017-12-13 14:35:00,36.1,15.2,29.80,South,188,7.0,7.0,42,0.00,CLR,,0.00,WeatherDisplay:10.37,2017-12-13 19:35:00,
2017-12-13 14:40:00,36.3,15.9,29.80,SE,142,6.9,6.9,43,0.00,CLR,,0.00,WeatherDisplay:10.37,2017-12-13 19:40:00,
2017-12-13 14:45:00,36.7,16.3,29.80,SE,140,3.5,3.5,43,0.00,CLR,,0.00,WeatherDisplay:10.37,2017-12-13 19:45:00,
2017-12-13 14:50:00,36.7,16.3,29.79,SE,133,6.9,6.9,43,0.00,CLR,,0.00,WeatherDisplay:10.37,2017-12-13 19:50:00,
2017-12-13 15:00:00,36.9,16.5,29.78,SE,124,4.6,4.6,43,0.00,CLR,,0.00,WeatherDisplay:10.37,2017-12-13 20:00:00,
2017-12-13 15:05:00,36.8,16.4,29.78,SSE,156,9.2,9.2,43,0.00,CLR,,0.00,WeatherDisplay:10.37,2017-12-13 20:05:00,
2017-12-13 15:10:00,36.8,16.4,29.78,SE,139,5.8,6.4,43,0.00,CLR,,0.00,WeatherDisplay:10.37,2017-12-13 20:10:00,
2017-12-13 15:15:00,37.1,17.2,29.78,ESE,116,5.8,5.8,44,0.00,CLR,,0.00,WeatherDisplay:10.37,2017-12-13 20:15:00,
2017-12-13 15:20:00,37.4,17.4,29.78,ESE,122,0.0,0.0,44,0.00,CLR,,0.00,WeatherDisplay:10.37,2017-12-13 20:20:00,
2017-12-13 15:25:00,37.6,17.6,29.78,SE,135,8.0,8.0,44,0.00,CLR,,0.00,WeatherDisplay:10.37,2017-12-13 20:25:00,
2017-12-13 15:30:00,37.5,17.0,29.77,South,189,3.5,3.5,43,0.00,CLR,,0.00,WeatherDisplay:10.37,2017-12-13 20:30:00,
2017-12-13 15:35:00,37.3,16.8,29.77,SE,125,9.2,9.2,43,0.00,CLR,,0.00,WeatherDisplay:10.37,2017-12-13 20:35:00,
2017-12-13 15:40:00,37.1,16.6,29.77,SSW,210,9.0,9.0,43,0.00,CLR,,0.00,WeatherDisplay:10.37,2017-12-13 20:40:00,
2017-12-13 15:45:00,36.8,16.4,29.77,SSW,213,5.8,5.8,43,0.00,CLR,,0.00,WeatherDisplay:10.37,2017-12-13 20:45:00,
2017-12-13 15:50:00,36.7,16.8,29.77,SE,143,4.6,4.6,44,0.00,CLR,,0.00,WeatherDisplay:10.37,2017-12-13 20:50:00,
2017-12-13 15:51:00,36.7,16.8,29.77,South,189,2.3,2.3,44,0.00,CLR,,0.00,WeatherDisplay:10.37,2017-12-13 20:51:00,
2017-12-13 16:01:00,36.9,17.5,29.77,SW,215,3.5,3.5,45,0.00,CLR,,0.00,WeatherDisplay:10.37,2017-12-13 21:01:00,
2017-12-13 16:06:00,37.0,17.6,29.76,SSE,148,3.5,3.5,45,0.00,CLR,,0.00,WeatherDisplay:10.37,2017-12-13 21:06:00,
2017-12-13 16:11:00,37.0,17.1,29.75,SE,137,5.0,5.0,44,0.00,CLR,,0.00,WeatherDisplay:10.37,2017-12-13 21:11:00,
2017-12-13 16:16:00,37.0,17.1,29.75,SE,131,3.5,3.5,44,0.00,CLR,,0.00,WeatherDisplay:10.37,2017-12-13 21:16:00,
2017-12-13 16:21:00,37.0,17.1,29.74,ESE,117,1.2,1.2,44,0.00,CLR,,0.00,WeatherDisplay:10.37,2017-12-13 21:21:00,
2017-12-13 16:31:00,37.0,17.6,29.75,ESE,108,3.5,3.5,45,0.00,CLR,,0.00,WeatherDisplay:10.37,2017-12-13 21:31:00,
2017-12-13 16:36:00,36.9,17.5,29.74,ESE,119,3.5,3.5,45,0.00,CLR,,0.00,WeatherDisplay:10.37,2017-12-13 21:36:00,
2017-12-13 16:41:00,36.9,17.5,29.74,SE,141,2.3,2.3,45,0.00,CLR,,0.00,WeatherDisplay:10.37,2017-12-13 21:41:00,
2017-12-13 16:46:00,36.9,17.5,29.73,SE,139,3.5,3.5,45,0.00,CLR,,0.00,WeatherDisplay:10.37,2017-12-13 21:46:00,
2017-12-13 16:51:00,36.9,17.5,29.73,SE,129,3.5,3.5,45,0.00,CLR,,0.00,WeatherDisplay:10.37,2017-12-13 21:51:00,
2017-12-13 16:56:00,36.9,17.5,29.73,SE,143,2.0,2.0,45,0.00,CLR,,0.00,WeatherDisplay:10.37,2017-12-13 21:56:00,
2017-12-13 17:01:00,36.9,17.5,29.73,SSE,163,3.5,3.5,45,0.00,CLR,,0.00,WeatherDisplay:10.37,2017-12-13 22:01:00,
2017-12-13 17:06:00,36.9,18.0,29.73,SSE,160,3.5,3.5,46,0.00,CLR,,0.00,WeatherDisplay:10.37,2017-12-13 22:06:00,
2017-12-13 17:11:00,36.9,18.5,29.73,ESE,115,1.2,0.0,47,0.00,CLR,,0.00,WeatherDisplay:10.37,2017-12-13 22:11:00,
2017-12-13 17:16:00,36.9,18.5,29.72,SE,139,1.2,1.2,47,0.00,CLR,,0.00,WeatherDisplay:10.37,2017-12-13 22:16:00,
2017-12-13 17:21:00,36.9,18.5,29.72,South,169,1.2,1.2,47,0.00,CLR,,0.00,WeatherDisplay:10.37,2017-12-13 22:21:00,
2017-12-13 17:26:00,36.9,18.5,29.72,SE,143,2.0,2.0,47,0.00,CLR,,0.00,WeatherDisplay:10.37,2017-12-13 22:26:00,
2017-12-13 17:31:00,36.9,19.0,29.71,SE,136,3.5,3.5,48,0.00,CLR,,0.00,WeatherDisplay:10.37,2017-12-13 22:31:00,
2017-12-13 17:36:00,37.0,18.6,29.72,South,178,5.8,5.8,47,0.00,CLR,,0.00,WeatherDisplay:10.37,2017-12-13 22:36:00,
2017-12-13 17:41:00,37.0,19.1,29.71,SE,127,3.5,3.5,48,0.00,CLR,,0.00,WeatherDisplay:10.37,2017-12-13 22:41:00,
2017-12-13 17:46:00,36.9,19.5,29.71,ESE,114,2.3,2.3,49,0.00,CLR,,0.00,WeatherDisplay:10.37,2017-12-13 22:46:00,
2017-12-13 17:51:00,36.9,20.0,29.71,ESE,107,0.0,0.0,50,0.00,CLR,,0.00,WeatherDisplay:10.37,2017-12-13 22:51:00,
2017-12-13 17:56:00,36.8,19.9,29.70,SE,141,2.3,2.3,50,0.00,CLR,,0.00,WeatherDisplay:10.37,2017-12-13 22:56:00,
2017-12-13 18:01:00,36.8,19.4,29.70,SE,127,3.5,3.5,49,0.00,CLR,,0.00,WeatherDisplay:10.37,2017-12-13 23:01:00,
2017-12-13 18:06:00,36.8,19.4,29.70,SSE,166,3.5,3.5,49,0.00,CLR,,0.00,WeatherDisplay:10.37,2017-12-13 23:06:00,
2017-12-13 18:11:00,36.8,19.4,29.70,SE,124,1.2,1.2,49,0.00,CLR,,0.00,WeatherDisplay:10.37,2017-12-13 23:11:00,
2017-12-13 18:16:00,36.9,19.0,29.71,SE,136,0.0,0.0,48,0.00,CLR,,0.00,WeatherDisplay:10.37,2017-12-13 23:16:00,
2017-12-13 18:21:00,36.8,19.4,29.70,SE,127,0.0,0.0,49,0.00,CLR,,0.00,WeatherDisplay:10.37,2017-12-13 23:21:00,
2017-12-13 18:26:00,36.6,19.2,29.69,ESE,117,3.5,3.5,49,0.00,CLR,,0.00,WeatherDisplay:10.37,2017-12-13 23:26:00,
2017-12-13 18:31:00,36.5,19.1,29.70,NW,306,1.2,1.2,49,0.00,CLR,,0.00,WeatherDisplay:10.37,2017-12-13 23:31:00,
2017-12-13 18:36:00,36.4,19.0,29.70,NNW,337,0.0,0.0,49,0.00,CLR,,0.00,WeatherDisplay:10.37,2017-12-13 23:36:00,
2017-12-13 18:41:00,36.4,19.0,29.70,North,359,0.0,0.0,49,0.00,CLR,,0.00,WeatherDisplay:10.37,2017-12-13 23:41:00,
2017-12-13 18:46:00,36.5,19.1,29.67,SE,139,3.5,3.5,49,0.00,CLR,,0.00,WeatherDisplay:10.37,2017-12-13 23:46:00,
2017-12-13 18:51:00,36.8,17.9,29.68,SSW,206,4.6,4.6,46,0.00,CLR,,0.00,WeatherDisplay:10.37,2017-12-13 23:51:00,
2017-12-13 18:56:00,36.9,18.5,29.69,SE,142,2.3,2.3,47,0.00,CLR,,0.00,WeatherDisplay:10.37,2017-12-13 23:56:00,
2017-12-13 19:01:00,36.9,18.0,29.68,SE,126,3.5,3.5,46,0.00,CLR,,0.00,WeatherDisplay:10.37,2017-12-14 00:01:00,
2017-12-13 19:06:00,37.2,17.8,29.69,SE,139,5.8,5.8,45,0.00,CLR,,0.00,WeatherDisplay:10.37,2017-12-14 00:06:00,
2017-12-13 19:11:00,37.5,17.5,29.68,South,180,6.9,6.9,44,0.00,CLR,,0.00,WeatherDisplay:10.37,2017-12-14 00:11:00,
2017-12-13 19:16:00,37.6,17.6,29.68,South,189,6.0,6.0,44,0.00,CLR,,0.00,WeatherDisplay:10.37,2017-12-14 00:16:00,
2017-12-13 19:21:00,37.7,17.2,29.67,SE,138,3.5,3.5,43,0.00,CLR,,0.00,WeatherDisplay:10.37,2017-12-14 00:21:00,
2017-12-13 19:26:00,37.7,16.6,29.68,SE,132,3.5,3.5,42,0.00,CLR,,0.00,WeatherDisplay:10.37,2017-12-14 00:26:00,
2017-12-13 19:31:00,37.6,16.5,29.67,SSW,206,3.5,3.5,42,0.00,CLR,,0.00,WeatherDisplay:10.37,2017-12-14 00:31:00,
2017-12-13 19:36:00,37.5,16.5,29.67,SSE,165,2.3,2.3,42,0.00,CLR,,0.00,WeatherDisplay:10.37,2017-12-14 00:36:00,
2017-12-13 19:41:00,37.3,16.8,29.67,SSE,165,3.5,3.5,43,0.00,CLR,,0.00,WeatherDisplay:10.37,2017-12-14 00:41:00,
2017-12-13 19:46:00,37.1,16.6,29.66,SE,137,2.3,2.3,43,0.00,CLR,,0.00,WeatherDisplay:10.37,2017-12-14 00:46:00,
2017-12-13 19:51:00,36.9,16.5,29.66,SSE,148,3.5,3.5,43,0.00,CLR,,0.00,WeatherDisplay:10.37,2017-12-14 00:51:00,
2017-12-13 19:56:00,36.7,16.3,29.66,SSE,168,1.2,1.2,43,0.00,CLR,,0.00,WeatherDisplay:10.37,2017-12-14 00:56:00,
2017-12-13 20:01:00,36.5,16.6,29.66,South,188,0.0,0.1,44,0.00,CLR,,0.00,WeatherDisplay:10.37,2017-12-14 01:01:00,
2017-12-13 20:06:00,36.2,16.4,29.67,South,180,1.2,1.2,44,0.00,CLR,,0.00,WeatherDisplay:10.37,2017-12-14 01:06:00,
2017-12-13 20:11:00,35.9,16.6,29.67,SE,138,1.2,1.2,45,0.00,CLR,,0.00,WeatherDisplay:10.37,2017-12-14 01:11:00,
2017-12-13 20:16:00,35.4,16.6,29.68,SSE,151,0.0,0.0,46,0.00,CLR,,0.00,WeatherDisplay:10.37,2017-12-14 01:16:00,
2017-12-13 20:21:00,34.9,16.7,29.67,SSW,203,2.3,2.3,47,0.00,CLR,,0.00,WeatherDisplay:10.37,2017-12-14 01:21:00,
2017-12-13 20:26:00,34.8,16.6,29.67,SSE,152,1.0,1.0,47,0.00,CLR,,0.00,WeatherDisplay:10.37,2017-12-14 01:26:00,
2017-12-13 20:31:00,34.8,16.6,29.67,ESE,113,3.5,3.5,47,0.00,CLR,,0.00,WeatherDisplay:10.37,2017-12-14 01:31:00,
2017-12-13 20:36:00,35.0,16.8,29.67,South,172,3.5,3.5,47,0.00,CLR,,0.00,WeatherDisplay:10.37,2017-12-14 01:36:00,
2017-12-13 20:41:00,35.0,16.8,29.66,SE,143,2.3,2.3,47,0.00,CLR,,0.00,WeatherDisplay:10.37,2017-12-14 01:41:00,
2017-12-13 20:46:00,35.1,16.4,29.66,SE,125,2.3,2.3,46,0.00,CLR,,0.00,WeatherDisplay:10.37,2017-12-14 01:46:00,
2017-12-13 20:51:00,35.0,16.3,29.66,SSE,168,3.5,3.5,46,0.00,CLR,,0.00,WeatherDisplay:10.37,2017-12-14 01:51:00,
2017-12-13 20:56:00,34.9,16.7,29.66,SSE,150,3.5,3.5,47,0.00,CLR,,0.00,WeatherDisplay:10.37,2017-12-14 01:56:00,
2017-12-13 21:01:00,34.7,16.5,29.66,South,175,3.5,3.5,47,0.00,CLR,,0.00,WeatherDisplay:10.37,2017-12-14 02:01:00,
2017-12-13 21:06:00,34.4,16.7,29.65,SE,132,4.6,4.6,48,0.00,CLR,,0.00,WeatherDisplay:10.37,2017-12-14 02:06:00,
2017-12-13 21:11:00,34.2,17.0,29.66,South,174,5.8,5.8,49,0.00,CLR,,0.00,WeatherDisplay:10.37,2017-12-14 02:11:00,
2017-12-13 21:16:00,34.1,16.9,29.65,SSW,197,6.9,6.9,49,0.00,CLR,,0.00,WeatherDisplay:10.37,2017-12-14 02:16:00,
2017-12-13 21:21:00,33.9,17.2,29.65,SE,141,8.1,8.1,50,0.00,CLR,,0.00,WeatherDisplay:10.37,2017-12-14 02:21:00,
2017-12-13 21:26:00,33.9,17.2,29.65,SE,125,3.5,3.5,50,0.00,CLR,,0.00,WeatherDisplay:10.37,2017-12-14 02:26:00,
2017-12-13 21:31:00,33.9,17.2,29.64,SE,140,6.9,6.9,50,0.00,CLR,,0.00,WeatherDisplay:10.37,2017-12-14 02:31:00,
2017-12-13 21:32:00,33.9,17.2,29.64,SE,141,10.4,10.4,50,0.00,CLR,,0.00,WeatherDisplay:10.37,2017-12-14 02:32:00,
2017-12-13 21:37:00,34.0,17.3,29.64,SE,143,5.8,5.8,50,0.00,CLR,,0.00,WeatherDisplay:10.37,2017-12-14 02:37:00,
2017-12-13 21:42:00,34.1,17.4,29.64,ESE,122,6.9,6.9,50,0.00,CLR,,0.00,WeatherDisplay:10.37,2017-12-14 02:42:00,
2017-12-13 21:47:00,34.2,17.5,29.64,SSE,160,3.5,3.5,50,0.00,CLR,,0.00,WeatherDisplay:10.37,2017-12-14 02:47:00,
2017-12-13 21:52:00,34.1,17.4,29.64,SW,222,8.1,8.1,50,0.00,CLR,,0.00,WeatherDisplay:10.37,2017-12-14 02:52:00,
2017-12-13 21:57:00,34.4,17.7,29.64,SSE,148,9.2,9.2,50,0.00,CLR,,0.00,WeatherDisplay:10.37,2017-12-14 02:57:00,
2017-12-13 22:02:00,34.9,17.7,29.64,SSE,156,8.1,8.1,49,0.00,CLR,,0.00,WeatherDisplay:10.37,2017-12-14 03:02:00,